User: anonymous   Login
Location: Newark
(49.5647°N, 8.2922°E)
Time: 21:39:19
(UTC+00:00)
Language:

A-11 Canister half - Orbit

View from above orbital plane
View from above orbital plane
View from above satellite
View from above satellite

Ground track
Ground track

The orbit data is extracted from the following two-line orbital elements,

1    53U 60009E   20048.82338457 +.00000020 +00000-0 +10438-2 0  9997
2    53 047.2746 270.9925 0100034 084.2448 276.9736 12.17240495653876
Epoch (UTC): 17 February 2020 19:45:40
Eccentricity: 0.0100034
inclination: 47.2746°
perigee height: 1525 km
apogee height: 1684 km
right ascension of ascending node: 270.9925°
argument of perigee: 84.2448°
revolutions per day: 12.17240495
mean anomaly at epoch: 276.9736°
orbit number at epoch: 65387

The dashed part of the orbit path shows where the satellite is in the earth's shadow,  

DLR